| time (UTC) | temp C | wind direction | speed KPH | gust KPH | rain 1hr cm | rain 24hr cm | rain mn cm | humidity % | barometer mb |
| 20260502163003 | 11 | 0 | 0.0 | 0.0 | 0.18 | 1.30 | 1.30 | 97 | 1012.7 |
| 20260502162504 | 11 | 0 | 0.0 | 0.0 | 0.20 | 1.30 | 1.30 | 97 | 1012.8 |
| 20260502162004 | 11 | 0 | 0.0 | 0.0 | 0.20 | 1.30 | 1.30 | 97 | 1012.7 |
| 20260502160504 | 11 | 0 | 0.0 | 4.8 | 0.23 | 1.27 | 1.27 | 97 | 1012.8 |
| 20260502152003 | 11 | 0 | 0.0 | 0.0 | 0.33 | 1.09 | 1.09 | 96 | 1013.3 |
| 20260502151504 | 11 | 0 | 0.0 | 0.0 | 0.33 | 1.07 | 1.07 | 96 | 1013.4 |
| 20260502151004 | 11 | 0 | 0.0 | 0.0 | 0.43 | 1.04 | 1.04 | 96 | 1013.5 |
| 20260502123505 | 12 | 0 | 0.0 | 0.0 | 0.05 | 0.05 | 0.05 | 90 | 1014.7 |
| 20260502122506 | 12 | 0 | 0.0 | 4.8 | 0.05 | 0.05 | 0.05 | 90 | 1014.8 |
| 20260502122005 | 12 | 94 | 3.2 | 6.4 | 0.03 | 0.05 | 0.05 | 90 | 1014.9 |
| 20260502121505 | 12 | 91 | 3.2 | 11.3 | 0.03 | 0.05 | 0.05 | 90 | 1015.0 |
| 20260502121006 | 12 | 98 | 3.2 | 11.3 | 0.00 | 0.03 | 0.03 | 90 | 1015.1 |
| 20260502120505 | 12 | 82 | 3.2 | 4.8 | 0.00 | 0.03 | 0.03 | 90 | 1015.1 |
| 20260502115506 | 12 | 67 | 3.2 | 9.7 | 0.00 | 0.03 | 0.03 | 90 | 1015.2 |
| 20260502115005 | 12 | 56 | 3.2 | 9.7 | 0.00 | 0.03 | 0.03 | 90 | 1015.2 |
| 20260502114506 | 12 | 42 | 3.2 | 6.4 | 0.00 | 0.03 | 0.03 | 90 | 1015.2 |
| 20260502112506 | 13 | 122 | 3.2 | 4.8 | 0.00 | 0.03 | 0.03 | 88 | 1015.5 |
| 20260502110505 | 13 | 156 | 3.2 | 6.4 | 0.00 | 0.03 | 0.03 | 86 | 1015.8 |
| 20260502110005 | 14 | 128 | 3.2 | 14.5 | 0.00 | 0.03 | 0.03 | 85 | 1016.0 |
| 20260502105005 | 14 | 114 | 3.2 | 11.3 | 0.00 | 0.03 | 0.03 | 85 | 1016.0 |
| 20260502103006 | 14 | 118 | 3.2 | 6.4 | 0.00 | 0.03 | 0.03 | 85 | 1016.3 |
| 20260502102006 | 13 | 96 | 4.8 | 11.3 | 0.00 | 0.03 | 0.03 | 85 | 1016.3 |
| 20260502101505 | 13 | 97 | 4.8 | 14.5 | 0.00 | 0.03 | 0.03 | 85 | 1016.4 |
| 20260502101005 | 13 | 108 | 4.8 | 14.5 | 0.00 | 0.03 | 0.03 | 85 | 1016.5 |
| 20260502100505 | 13 | 106 | 3.2 | 11.3 | 0.00 | 0.03 | 0.03 | 85 | 1016.5 |
| 20260502091505 | 14 | 165 | 3.2 | 11.3 | 0.00 | 0.03 | 0.03 | 86 | 1016.9 |
| 20260502090505 | 13 | 104 | 3.2 | 9.7 | 0.00 | 0.03 | 0.03 | 88 | 1016.8 |
| 20260502071505 | 9 | 0 | 0.0 | 0.0 | 0.03 | 0.03 | 0.03 | 100 | 1017.9 |
| 20260502065505 | 8 | 0 | 0.0 | 0.0 | 0.03 | 0.03 | 0.03 | 100 | 1017.9 |
| 20260502063505 | 8 | 0 | 0.0 | 0.0 | 0.03 | 0.03 | 0.03 | 100 | 1018.1 |
| 20260502063004 | 7 | 0 | 0.0 | 0.0 | 0.03 | 0.03 | 0.03 | 100 | 1018.1 |
| 20260502062505 | 7 | 0 | 0.0 | 0.0 | 0.03 | 0.03 | 0.03 | 100 | 1018.1 |
| 20260502062005 | 7 | 0 | 0.0 | 0.0 | 0.00 | 0.00 | 0.00 | 100 | 1018.0 |
| 20260502061005 | 7 | 0 | 0.0 | 0.0 | 0.00 | 0.00 | 0.00 | 100 | 1018.0 |
| 20260502060504 | 7 | 0 | 0.0 | 0.0 | 0.00 | 0.00 | 0.00 | 100 | 1018.0 |
| 20260502054005 | 7 | 0 | 0.0 | 0.0 | 0.00 | 0.00 | 0.00 | 97 | 1018.2 |
| 20260502053505 | 7 | 0 | 0.0 | 0.0 | 0.00 | 0.00 | 0.00 | 97 | 1018.2 |
| 20260502053004 | 7 | 0 | 0.0 | 0.0 | 0.00 | 0.00 | 0.00 | 97 | 1018.2 |
| 20260502052505 | 7 | 0 | 0.0 | 0.0 | 0.00 | 0.00 | 0.00 | 97 | 1018.2 |
| 20260502051005 | 7 | 0 | 0.0 | 0.0 | 0.00 | 0.00 | 0.00 | 97 | 1018.4 |
| 20260502050505 | 7 | 0 | 0.0 | 0.0 | 0.00 | 0.00 | 0.00 | 97 | 1018.5 |
| 20260502050004 | 7 | 0 | 0.0 | 0.0 | 0.00 | 0.00 | 0.00 | 97 | 1018.5 |
| 20260502045505 | 7 | 0 | 0.0 | 0.0 | 0.00 | 0.00 | 0.00 | 97 | 1018.6 |
| 20260502045004 | 6 | 0 | 0.0 | 0.0 | 0.00 | 0.00 | 0.00 | 97 | 1018.6 |
| 20260502044505 | 7 | 0 | 0.0 | 0.0 | 0.00 | 0.00 | 0.00 | 97 | 1018.7 |
| 20260502043504 | 7 | 0 | 0.0 | 0.0 | 0.00 | 0.00 | 0.00 | 97 | 1018.7 |
| 20260502042004 | 7 | 0 | 0.0 | 0.0 | 0.00 | 0.00 | 0.00 | 97 | 1018.7 |
| 20260502041505 | 7 | 0 | 0.0 | 0.0 | 0.00 | 0.00 | 0.00 | 97 | 1018.8 |
| 20260502040504 | 7 | 0 | 0.0 | 0.0 | 0.00 | 0.00 | 0.00 | 97 | 1018.7 |
| 20260502040005 | 7 | 0 | 0.0 | 0.0 | 0.00 | 0.00 | 0.00 | 97 | 1018.7 |
| 20260502035504 | 7 | 0 | 0.0 | 0.0 | 0.00 | 0.00 | 0.00 | 97 | 1018.8 |
| 20260502034505 | 7 | 0 | 0.0 | 0.0 | 0.00 | 0.00 | 0.00 | 97 | 1018.8 |
| 20260502034005 | 7 | 0 | 0.0 | 0.0 | 0.00 | 0.00 | 0.00 | 97 | 1018.8 |
| 20260502033504 | 7 | 0 | 0.0 | 0.0 | 0.00 | 0.00 | 0.00 | 97 | 1018.9 |
| 20260502032004 | 7 | 0 | 0.0 | 0.0 | 0.00 | 0.00 | 0.00 | 97 | 1018.9 |
| 20260502031504 | 7 | 0 | 0.0 | 0.0 | 0.00 | 0.00 | 0.00 | 97 | 1018.9 |
| 20260502031004 | 7 | 0 | 0.0 | 0.0 | 0.00 | 0.00 | 0.00 | 97 | 1018.9 |
| 20260502025504 | 7 | 0 | 0.0 | 0.0 | 0.00 | 0.00 | 0.00 | 97 | 1018.9 |
| 20260502025004 | 7 | 0 | 0.0 | 0.0 | 0.00 | 0.00 | 0.00 | 97 | 1018.9 |